Flag for Syria Weather past 2 weeks in Aleppo, Syria

Now
76 °F

Scattered clouds.


Feels Like: 78 °F
Forecast: 57 / 77 °F
Wind: 6 mph from Northwest

Location: Iskenderun

Current Time: Oct 23, 2014 at 11:50:35 AM

Latest Report: Oct 23, 2014 at 11:00 AM


Visibility: 9 mi

Pressure: 29.95 "Hg

Humidity: 35%

Dew point: 47 °F

Location of AleppoLocation

Historic Weather in Aleppo — Graph

°F

Aleppo temperature yesterday

Maximum temperature yesterday: 74 °F (at 11:00 PM)
Minimum temperature yesterday: 61 °F (at 6:00 AM)
Average temperature yesterday: 69 °F

Past Weeks' High & Low Weather Summary

 TemperatureHumidityPressure
High87 °F (Oct 11, 2:00 PM)92% (Oct 15, 3:00 AM)30.09 "Hg (Oct 15, 3:00 AM)
Low58 °F (Oct 20, 6:00 AM)17% (Oct 21, 5:00 PM)29.79 "Hg (Oct 19, 3:00 AM)
Average72 °F58%29.94 "Hg
* Reported Oct 8 10:00 AM — Oct 23 10:00 AM, Aleppo, Weather by CustomWeather, © 2014

Note: Actual official high and low records may vary slightly from our data, if they occured in-between our weather recording intervals... More about our weather records

Advertising

Aleppo weather history for previous 24 hours

 ConditionsComfort  
Time TempWeatherWind HumidityBarometerVisibility
10:00 AM
Oct 23
75 °FPartly sunny.7 mph33%29.94 "Hg9 mi
9:00 AM74 °FOvercast.6 mph34%29.94 "Hg9 mi
8:00 AM73 °FOvercast.8 mph37%29.93 "Hg12 mi
7:00 AM74 °FOvercast.3 mph32%29.92 "Hg12 mi
6:00 AM74 °FClear.5 mph33%29.92 "Hg12 mi
5:00 AM77 °FPassing clouds.10 mph32%29.93 "Hg12 mi
4:00 AM75 °FPassing clouds.7 mph41%29.95 "Hg12 mi
3:00 AM74 °FPassing clouds.7 mph33%29.96 "Hg12 mi
2:00 AM72 °FPassing clouds.1 mph36%29.98 "Hg12 mi
1:00 AM74 °FClear.1 mph31%29.99 "Hg12 mi
12:00 AM72 °FClear.1 mph36%30.01 "Hg12 mi
11:00 PM
Oct 22
74 °FClear.6 mph33%30.01 "Hg12 mi
10:00 PM74 °FClear.8 mph42%30.01 "Hg12 mi
9:00 PMN/APassing clouds.N/AN/AN/A13 mi
8:00 PM70 °FOvercast.1 mph51%30.03 "Hg12 mi
7:00 PM71 °FOvercast.2 mph50%30.02 "Hg12 mi
6:00 PM72 °FOvercast.1 mph46%30.02 "Hg12 mi
5:00 PM74 °FOvercast.2 mph42%30.02 "Hg12 mi
4:00 PM74 °FOvercast.1 mph41%30.02 "Hg12 mi
3:00 PM74 °FPartly sunny.5 mph42%30.04 "Hg12 mi
2:00 PM74 °FScattered clouds.5 mph40%30.05 "Hg12 mi
1:00 PM74 °FPassing clouds.5 mph43%30.08 "Hg12 mi
12:00 PM73 °FPassing clouds.3 mph44%30.08 "Hg12 mi
11:00 AM73 °FSunny.2 mph37%30.08 "Hg12 mi
Weather by CustomWeather, © 2014

See weather overviewHow to use our weather pages